Regional Weather Roundup
Issued by NWS Boston, MA

Home | Current Version | Previous Version | Text Only | Print | Product List | Glossary On
Versions: 1 2 3 4 5 6 7 8 9 10 11 12 13 14 15 16 17 18 19 20 21 22 23 24 25 26 27 28 29 30 31 32 33 34 35 36 37 38 39 40 41 42 43 44 45 46 47 48 49 50
745
ASUS41 KBOX 210510
RWRBOX

REGIONAL WEATHER ROUNDUP
NATIONAL WEATHER SERVICE BOSTON/NORTON MA
100 AM EDT WED AUG 21 2019

NOTE:  "FAIR" INDICATES FEW OR NO CLOUDS BELOW 12,000 FEET WITH NO
SIGNIFICANT WEATHER AND/OR OBSTRUCTIONS TO VISIBILITY.

MAZALL-210600-
EASTERN MASSACHUSETTS

CITY           SKY/WX    TMP DP  RH WIND       PRES   REMARKS
BOSTON         FAIR      71  62  73 S6        30.03F
BEVERLY        FAIR      64  62  93 CALM      30.02F
LAWRENCE       FAIR      65  61  87 CALM      30.05F
BEDFORD        FAIR      65  59  81 CALM      30.03S
BLUE HILL        N/A     71  61  70 SW9       30.05S
NORWOOD        FAIR      65  59  81 CALM      30.04S
MARSHFIELD     FAIR      66  66 100 CALM      30.04S
PLYMOUTH       FAIR      65  63  93 CALM      30.05F
TAUNTON        FAIR      62  59  90 CALM      30.04F
NEW BEDFORD    FAIR      65  62  90 CALM      30.05S
$$

MAZALL-210600-
CAPE COD AND THE ISLANDS

CITY           SKY/WX    TMP DP  RH WIND       PRES   REMARKS
FALMOUTH       NOT AVBL
HYANNIS        FAIR      73  67  81 S5        30.05S
CHATHAM        FAIR      66  64  93 S3        30.07F
PROVINCETOWN   FAIR      69  67  93 S6        30.05F
NANTUCKET      FAIR      67  66  97 S6        30.07F
MARTHAS VNYRD  FAIR      61  59  93 CALM      30.06S
$$

MAZALL-210600-
CENTRAL AND WESTERN MASSACHUSETTS

CITY           SKY/WX    TMP DP  RH WIND       PRES   REMARKS
WORCESTER      FAIR      66  58  75 SW5       30.07F
FITCHBURG      FAIR      65  59  81 CALM      30.05F
ORANGE         FAIR      63  60  90 CALM      30.06F
SPRINGFIELD    FAIR      64  63  96 CALM      30.03S
WESTFIELD      FAIR      65  62  90 CALM      30.04R
NORTH ADAMS    FAIR      61  60  97 CALM      30.06S
PITTSFIELD     FAIR      64  61  90 CALM      30.06S
$$

RIZALL-210600-
RHODE ISLAND

CITY           SKY/WX    TMP DP  RH WIND       PRES   REMARKS
PROVIDENCE     FAIR      70  64  81 SW6       30.05F
NEWPORT        FAIR      69  64  84 S3        30.06S
BLOCK ISLAND   FAIR     N/A N/A N/A SW8       30.06F
SMITHFIELD     FAIR      67  63  87 CALM      30.06F
WESTERLY       FAIR      69  67  93 CALM      30.06F
$$

CTZALL-210600-
CONNECTICUT

CITY           SKY/WX    TMP DP  RH WIND       PRES   REMARKS
BRADLEY INTL   FAIR      72  65  78 S6        30.03S
HARTFORD       FAIR      73  67  81 S5        30.03S
BRIDGEPORT     FAIR      76  66  71 S3        30.04S
DANBURY        FAIR      70  65  84 SW3       30.07R
GROTON         FAIR      70  64  81 CALM      30.05S
NEW HAVEN      FAIR      73  68  84 CALM      30.05S
CHESTER        FAIR      70  68  94 CALM      30.06F
MERIDEN        FAIR      69  67  93 CALM      30.04F
WILLIMANTIC    FAIR      67  64  90 CALM      30.07S
OXFORD         FAIR      70  63  78 CALM      30.08S
$$

MEZ002-015-021-024-NHZ003-005-008-011-012-014-VTZ005-008-210600-
NORTHERN NEW ENGLAND

CITY           SKY/WX    TMP DP  RH WIND       PRES   REMARKS
PORTLAND ME    FAIR      64  57  78 CALM      30.03F
BANGOR ME      FAIR      64  59  83 S6        30.02F
CONCORD NH     FAIR      59  57  93 CALM      30.03F
MANCHESTER NH  FAIR      68  61  78 S3        30.02F
NASHUA NH      FAIR      63  62  97 NW3       30.04F
PORTSMOUTH NH  PTCLDY    62  59  89 CALM      30.02F
JAFFREY NH     FAIR      60  57  89 CALM      30.08S
KEENE NH       FAIR      60  60 100 CALM      30.06S
BURLINGTON VT  FAIR      65  58  78 E3        29.99F
MT. WASHINGTON PTCLDY    52  39  62 W12         N/A
$$

NYZ052-076-210600-
EASTERN NEW YORK

CITY           SKY/WX    TMP DP  RH WIND       PRES   REMARKS
ALBANY         FAIR      70  65  84 CALM      30.02S
NEW YORK CITY  FAIR      79  71  76 S7        30.03R
$$

ANZALL-210600-
MARINE OBSERVATIONS

STATION/POSITION TIME  TEMP    WIND        PRES    VSBY  WAVE
                       AIR SEA DIR/SP/G                  HT/PER
                 (UTC) (F)     (DEG/KT/KT) (MB)    (MI)  (FT/S)
BOSTON BUOY      0350   70 70              1016.3          1/11
BUZZARDS BAY     0400   75     200/  9/  9 1018.4S
NANTUCKET SOUND  0450   73 75  180/ 10/ 12   N/A           0
MASS BAY-STELLWA 0404   68 66  190/  6/  6 1017.0R  1 7/8  1/ 3
ISLE OF SHOALS   0400   69     200/  7/  7 1016.8R
S OF BLOCK IS    0500      76                N/A           2/10
$$

......................KEY.........................
  SKY/WX - SKY CONDITION/PRESENT WEATHER
  TMP    - TEMPERATURE IN FAHRENHEIT
  DWPT   - DEWPOINT IN FAHRENHEIT
  RH     - RELATIVE HUMIDITY IN PERCENT
  WIND   - DIRECTION AND SPEED IN MPH
  PRES   - MEAN SEA LEVEL PRESSURE IN INCHES OF HG
  WCI    - WIND CHILL INDEX
  VSB    - VISIBILITY IN MILES
  HX     - HEAT INDEX
  TC     - TEMPERATURE IN CELSIUS
  VRB    - VARIABLE WIND DIRECTION
  N/A    - NOT AVAILABLE




USA.gov is the U.S. government's official web portal to all federal, state and local government web resources and services.